INMARSAT 5-F4 (42698 NORAD) Tracking and Keplerian Element Data

This shows tracking and keplerian element data for the satellite.

Feedback or suggestion? Click here.




ElementValue
Catalog42698
NameINMARSAT 5-F4
Epoch Orbit1586
Epoch Day259.13793417
Epoch Year2021
RAAN157.4193
Inclination0.0248
Eccentricity2.09E-05
Argument of Perigee128.669
Mean Anonmoly175.3623
Mean Motion1.00268874
Decay Rate5.4E-07
L11 42698U 17025A 21259.13793417 .00000054 00000-0 00000+0 0 9996
L22 42698 0.0248 157.4193 0000209 128.6690 175.3623 1.00268874 15861

Live tracking and technical data element details for INMARSAT 5-F4 (NORAD 42698). INMARSAT 5-F4 can be tracked NOW for your location showing map with azimuth and elevation plus other details from your city location.

Track the satellite on the map from your city or location and see movement details for azimuth, elevation, latitude, longitude, range, height, and movement on the map or in text.







IsCatalogInMostPopularTable: catalog: 42698, numindb: 669
Update: records affected: 1



GetName: 42698 INMARSAT 5-F4

Hit Count: updated at: Sat, 18 Sep 2021 10:39:19 GMT